Location: ????????
(55.0808°N, 38.5463°E)
Time: 11:08:12
(UTC+00:00)

Lacrosse 5 - Pass Details

Date: 14 April 2024
Orbit: 714 x 724 km, 57.0° (Epoch: 09 March)

Event Time Altitude Azimuth Distance (km) Brightness Sun altitude
Exits shadow 00:05:37 31° 228° (SW) 1,247 2.5 -17.3°
Maximum altitude 00:08:00 71° 153° (SSE) 771 1.9 -17.1°
Drops below altitude 10° 00:13:06 10° 70° (ENE) 2,222 5.4 -16.6°
Sets 00:15:30 0° 68° (ENE) 3,145 6.4 -16.4°
